Location: Bethany Lutheran Church
(43.3705°N, 93.7699°W)
Time: 19:25:21
(UTC+00:00)

Daily predictions for brighter satellites

Satellite Brightness Start Highest point End
(mag) Time Altitude Azimuth Time Altitude Azimuth Time Altitude Azimuth
Sich 1 Rocket 3.6 12:02:44 10° NNW 12:07:11 61° W 12:11:35 10° S
Cosmos 968 Rocket 4.1 12:02:43 11° NW 12:07:15 35° WSW 12:11:58 10° SSW
CENTAUR R/B 3.6 12:00:23 10° NW 12:08:40 54° WSW 12:17:47 10° S
Meteor 2-17 Rocket 4.5 12:04:08 10° SSW 12:10:06 59° WNW 12:16:08 10° N
ATLAS 3B R/B 3.5 12:03:23 10° WSW 12:10:26 40° NW 12:17:47 10° NNE
Helios 1A Rocket 3.2 12:08:48 10° SSW 12:11:49 30° W 12:14:49 10° NW
Cosmos 1484 Rocket 2.4 12:09:25 10° N 12:12:56 71° WNW 12:16:25 10° SSW
NOSS 2-2 (C) 4.0 12:10:47 13° NW 12:14:27 57° WSW 12:20:10 10° SSE
COSMO-SKYMED 1 2.9 12:11:08 10° S 12:15:00 40° W 12:18:55 10° NNW
IRS-1D 4.2 12:12:38 10° N 12:16:55 30° WNW 12:21:10 10° SW
Cosmos 2228 4.4 12:14:30 10° N 12:18:31 39° ENE 12:22:30 10° SSE
Cosmos 292 Rocket 3.7 12:14:28 10° NNW 12:19:16 77° WSW 12:24:01 10° SSE
CZ-3 R/B 3.5 12:11:55 10° WSW 12:21:44 26° SSW 12:26:24 10° SE
SL-8 R/B 4.4 12:17:44 10° SW 12:22:23 56° SSE 12:27:03 10° ENE
Gbstr 26 Del rocket 4.0 12:17:52 12° NW 12:22:54 68° NNE 12:29:27 10° ESE
IGS 5A 3.3 12:20:51 10° N 12:24:50 80° WNW 12:28:47 10° SSW
SL-16 R/B 3.6 12:24:25 10° W 12:28:05 17° NW 12:31:46 10° N
USA 234 3.4 12:26:14 10° SE 12:32:44 65° SW 12:39:15 10° NW
Cosmos 1302 Rocket 4.2 12:27:49 10° SW 12:32:48 49° WNW 12:37:50 10° N
Cosmos 1975 Rocket 3.1 12:28:57 10° S 12:33:13 81° E 12:37:31 10° N
Cosmos 1315 Rocket 3.0 12:32:53 10° N 12:36:45 71° E 12:40:33 10° SSE
Cosmos 1992 Rocket 4.0 12:32:11 10° SSW 12:37:23 81° WNW 12:42:38 10° NNE
Cosmos 1441 Rocket 3.4 12:35:03 10° SW 12:38:07 35° WNW 12:41:14 10° N
deb Kosmos-1261 4.3 12:38:00 10° SW 12:40:16 57° NW 12:43:55 10° NE
CORIOLIS 4.4 12:35:00 10° NNE 12:40:22 79° ESE 12:45:43 10° S
Tsikada Rocket 4.1 12:34:13 10° SSW 12:40:30 68° W 12:46:55 10° N
NOSS 2-2 (D) 4.0 12:38:13 10° NW 12:42:18 59° SW 12:47:57 10° SSE
Cosmos 1025 Rocket 4.2 12:39:43 10° WSW 12:43:05 22° WNW 12:46:28 10° NNW
CBERS-1 4.1 23:08:36 10° SSE 23:13:43 88° ENE 23:18:51 10° NNW
SMAP 3.3 23:10:00 10° SE 23:14:26 46° ENE 23:18:54 10° N
YAOGAN 1 4.4 23:14:29 10° ENE 23:15:11 10° ENE 23:15:53 10° NE
Cosmos 44 Rocket 3.6 23:11:34 10° S 23:16:06 47° ESE 23:20:47 10° NE
BREEZE-M DEB (TANK) 2.5 23:15:55 10° SW 23:18:04 56° SE 23:22:28 10° ENE
Cosmos 1833 Rocket 3.1 23:12:36 10° NNW 23:18:14 73° WSW 23:23:50 10° SSE
USA 215 3.4 23:12:17 10° ESE 23:18:38 57° NNE 23:25:01 10° NW
RESURS DK-1 2.7 23:16:57 10° NNW 23:20:44 39° ENE 23:24:30 10° SE
Meteor 1-28 Rocket 3.3 23:18:04 10° N 23:21:25 67° WNW 23:24:45 10° SSW
SL-12 R/B(2) 4.3 23:15:39 10° SSW 23:23:21 73° ESE 23:32:44 10° NE
Cosmos 540 Rocket 3.7 23:19:49 10° N 23:24:45 45° ENE 23:29:37 10° SE
Landsat 7 4.1 23:22:06 10° SE 23:26:30 44° ENE 23:30:56 10° N
Cosmos 1400 Rocket 4.3 23:24:37 10° SE 23:26:53 15° E 23:29:10 10° NE
SJ-12 4.1 23:26:23 10° SE 23:29:57 42° ENE 23:33:33 10° N
Helios 1A Rocket 4.5 23:31:25 11° E 23:32:03 11° E 23:33:03 10° ESE
Cosmos 1763 Rocket 3.4 23:28:55 10° NNW 23:34:06 64° ENE 23:39:11 10° SSE
Tsikada Rocket 4.3 23:29:59 10° N 23:36:24 77° W 23:42:42 10° S
Cosmos 1140 Rocket 4.4 23:32:37 10° SW 23:37:38 50° WNW 23:42:39 10° N
UNK 3.8 23:35:05 10° NNE 23:39:43 83° WNW 23:44:19 10° SSW
Cosmos 371 Rocket 4.3 23:38:36 10° SSE 23:42:29 25° E 23:46:07 11° NE
Okean 2 Rocket 4.1 23:41:11 10° SE 23:44:45 25° E 23:48:19 10° NE
Timation 1 Rocket 4.3 23:46:45 10° NNW 23:52:45 80° ENE 23:58:42 10° SSE
COSMO-SKYMED 1 3.5 23:52:15 14° NE 23:54:50 25° E 23:58:13 10° SSE
Cosmos 1602 3.4 23:52:23 10° N 23:55:20 43° E 23:58:15 10° SSE
